Tracking 17155 objects as of 30-July-2015
HD Live streaming from Space Station

MAQSAT H

Track MAQSAT H now!
10-day predictions
MAQSAT H is classified as:


NORAD ID: 25023
Int'l Code: 1997-066A
Perigee: 551.9 km
Apogee: 26,446.3 km
Inclination: 7.8 °
Period: 464.6 minutes
Semi major axis: 19870 km
RCS: 21.0323 m2 (large)
Launch date: October 30, 1997
Source: European Space Agency (ESA)
Your satellite tracking list
Your tracking list is empty





NASA's NSSDC Master Catalog

Two Line Element Set (TLE):
1 25023U 97066A   15211.43036422 -.00000031  00000-0  62309-3 0  9992
2 25023 007.8129 041.9896 6515911 097.2451 196.7538 03.09957820200592

Source of the keplerian elements: AFSPC

N2YO: 310